Terminal Aerodrome Forecast
Issued by NWS

Home | Current Version | Previous Version | Graphics & Text | Print | Product List | Glossary On
Versions: 1 2 3 4 5 6 7 8 9 10 11 12 13 14 15 16 17 18
000
FTUS42 KMHX 221720
TAFISO
TAF
KISO 221720Z 2218/2318 34007KT P6SM VCSH OVC025
     FM222200 34008KT P6SM VCSH BKN040
     FM230700 34003KT P6SM BKN010
     FM231200 34006KT P6SM BKN020
      AMD LTD TO CLD VIS AND WIND=

USA.gov is the U.S. government's official web portal to all federal, state and local government web resources and services.